San Sebastian, Spain

7:46 AM CEST on May 28, 2018 (GMT +0200)
San Sebastian

Weather History for LESO - November, 2012

Change the Weather History Date:

Thursday, November 8, 2012

  Actual Average Record
Temperature  
Mean Temperature 61 °F -  
Max Temperature 69 °F 57 °F 84 °F (2015)
Min Temperature 53 °F 46 °F 41 °F (1999)
Degree Days  
Heating Degree Days 4    
Growing Degree Days 11 (Base 50)    
Moisture  
Dew Point 48 °F    
Average Humidity 56    
Maximum Humidity 82    
Minimum Humidity 46    
Precipitation  
Precipitation 0.00 in - - ()
Sea Level Pressure  
Sea Level Pressure 30.05 in    
Wind  
Wind Speed 6 mph ()    
Max Wind Speed 14 mph    
Max Gust Speed 23 mph    
Visibility 6.2 miles    
Events      
Averages and records for this station are not official NWS values.
T = Trace of Precipitation, MM = Missing Value Source: Averaged Metar Reports

Daily Weather History Graph

Daily Weather History Graph

Search for Another Location

Airport or City:

Astronomy

Nov. 08, 2012 Rise Set
Actual Time 7:51 AM CET 5:49 PM CET
Civil Twilight 7:21 AM CET 6:19 PM CET
Nautical Twilight 6:47 AM CET 6:53 PM CET
Astronomical Twilight 6:13 AM CET 7:27 PM CET
Moon 1:21 AM CET (11/8) 2:32 PM CET (11/8)
Length of Visible Light 10h 58m
Length of Day
9h 57m
Waning Crescent, 35% of the Moon is Illuminated
Nov 8
Waning Crescent
Nov 13
New
Nov 20
First Quarter
Nov 28
Full
Dec 6
Last Quarter

Hourly Weather History & Observations

Time (CET) Temp. Dew Point Humidity Pressure Visibility Wind Dir Wind Speed Gust Speed Precip Events Conditions
5:30 AM 53.6 °F 48.2 °F 82% 30.09 in - Variable 1.2 mph - N/A   Clear
6:00 AM 59.0 °F 46.4 °F 63% 30.09 in - SSW 5.8 mph - N/A   Clear
6:30 AM 60.8 °F 44.6 °F 55% 30.06 in - South 12.7 mph - N/A   Clear
7:00 AM 60.8 °F 44.6 °F 55% 30.06 in - South 6.9 mph - N/A   Clear
7:30 AM 62.6 °F 44.6 °F 52% 30.06 in - South 10.4 mph - N/A   Clear
8:00 AM 62.6 °F 46.4 °F 55% 30.06 in - SSE 10.4 mph - N/A   Clear
8:30 AM 62.6 °F 46.4 °F 55% 30.06 in - South 5.8 mph - N/A   Clear
9:00 AM 62.6 °F 44.6 °F 52% 30.09 in - SSW 4.6 mph - N/A   Clear
9:30 AM 60.8 °F 48.2 °F 63% 30.09 in - Calm Calm - N/A   Clear
10:00 AM 66.2 °F 48.2 °F 52% 30.09 in - Calm Calm - N/A   Clear
10:30 AM 68.0 °F 48.2 °F 49% 30.09 in - Calm Calm - N/A   Clear
11:00 AM 66.2 °F 48.2 °F 52% 30.09 in - SSE 5.8 mph - N/A   Clear
11:30 AM 66.2 °F 46.4 °F 49% 30.06 in - SSE 9.2 mph - N/A   Clear
12:00 PM 66.2 °F 48.2 °F 52% 30.06 in - South 3.5 mph - N/A   Clear
12:30 PM 66.2 °F 48.2 °F 52% 30.06 in - South 10.4 mph - N/A   Clear
1:00 PM 68.0 °F 48.2 °F 49% 30.06 in - South 4.6 mph - N/A   Clear
1:30 PM 68.0 °F 48.2 °F 49% 30.06 in - Variable 2.3 mph - N/A   Clear
2:00 PM 69.8 °F 48.2 °F 46% 30.04 in - Variable 1.2 mph 12.7 mph N/A   Clear
2:30 PM 68.0 °F 48.2 °F 49% 30.04 in - SSE 11.5 mph - N/A   Clear
3:00 PM 68.0 °F 48.2 °F 49% 30.04 in - SSE 11.5 mph - N/A   Clear
3:30 PM 66.2 °F 48.2 °F 52% 30.04 in - SSE 11.5 mph - N/A   Clear
4:00 PM 66.2 °F 48.2 °F 52% 30.04 in 6.2 mi South 9.2 mph - N/A   Scattered Clouds
4:30 PM 66.2 °F 48.2 °F 52% 30.04 in - South 8.1 mph - N/A   Clear
5:30 PM 64.4 °F 50.0 °F 59% 30.04 in 6.2 mi South 11.5 mph - N/A   Partly Cloudy
6:00 PM 64.4 °F 51.8 °F 64% 30.01 in - South 11.5 mph - N/A   Clear
6:30 PM 64.4 °F 50.0 °F 59% 30.01 in - South 10.4 mph - N/A   Clear
7:00 PM 64.4 °F 51.8 °F 64% 30.01 in 6.2 mi South 13.8 mph - N/A   Scattered Clouds
7:30 PM 62.6 °F 51.8 °F 68% 30.01 in 6.2 mi South 3.5 mph - N/A   Partly Cloudy
8:00 PM 64.4 °F 50.0 °F 59% 29.98 in 6.2 mi South 11.5 mph 23.0 mph N/A   Partly Cloudy
8:30 PM 64.4 °F 50.0 °F 59% 29.98 in 6.2 mi SSE 10.4 mph - N/A   Partly Cloudy
9:00 PM 64.4 °F 50.0 °F 59% 29.98 in - South 6.9 mph - N/A   Clear
9:30 PM 64.4 °F 50.0 °F 59% 29.98 in - SE 8.1 mph - N/A   Clear